Yeovilton, United Kingdom

1:54 PM GMT on February 08, 2016 (GMT +0000)
Yeovil Radar Navy

Weather History for EGDY - October, 2012

Change the Weather History Date:

Tuesday, October 16, 2012

  Actual Average Record
Temperature  
Mean Temperature 52 °F -  
Max Temperature 59 °F 53 °F 63 °F (2013)
Min Temperature 46 °F 41 °F 37 °F (2004)
Degree Days  
Heating Degree Days 12    
Growing Degree Days 2 (Base 50)    
Moisture  
Dew Point 44 °F    
Average Humidity 72    
Maximum Humidity 93    
Minimum Humidity 50    
Precipitation  
Precipitation 0.00 in - - ()
Sea Level Pressure  
Sea Level Pressure 29.55 in    
Wind  
Wind Speed 11 mph ()    
Max Wind Speed 18 mph    
Max Gust Speed 30 mph    
Visibility 8.5 miles    
Events Rain    
Averages and records for this station are not official NWS values.
T = Trace of Precipitation, MM = Missing Value Source: Averaged Metar Reports

Daily Weather History Graph

Daily Weather History Graph

Search for Another Location

Airport or City:

Trip Planner

Search our weather history database for the weather conditions in past years. The results will help you decide how hot, cold, wet, or windy it might be!

Date:

Astronomy

Oct. 16, 2012 Rise Set
Actual Time 7:35 AM BST 6:15 PM BST
Civil Twilight 7:02 AM BST 6:48 PM BST
Nautical Twilight 6:24 AM BST 7:26 PM BST
Astronomical Twilight 5:45 AM BST 8:04 PM BST
Moon 8:54 AM BST (10/16) 6:33 PM BST (10/16)
Length of Visible Light 11h 45m
Length of Day
10h 39m
New Moon, 1% of the Moon is Illuminated
Oct 16
New Moon
Oct 22
First Quarter
Oct 29
Full
Nov 7
Last Quarter
Nov 13
New

Hourly Weather History & Observations

Time (BST) Temp. Windchill Dew Point Humidity Pressure Visibility Wind Dir Wind Speed Gust Speed Precip Events Conditions
12:50 AM 51 °F - 47 °F 80% 29.41 in 12 mi West 18.4 mph - - Rain Light Rain
12:50 AM 51.8 °F - 46.4 °F 82% 29.39 in 6.2 mi West 18.4 mph 29.9 mph N/A   Scattered Clouds
1:50 AM 50.0 °F - 46.4 °F 87% 29.44 in 6.2 mi WSW 9.2 mph - N/A   Scattered Clouds
2:50 AM 50.0 °F - 44.6 °F 82% 29.44 in - WSW 10.4 mph - N/A   Clear
3:50 AM 50 °F - 43 °F 70% 29.47 in 16 mi West 12.7 mph - -   Scattered Clouds
3:50 AM 50.0 °F - 42.8 °F 76% 29.44 in - West 12.7 mph - N/A   Clear
4:50 AM 50.0 °F - 42.8 °F 76% 29.47 in - WSW 10.4 mph - N/A   Clear
5:50 AM 50.0 °F - 44.6 °F 82% 29.47 in 6.2 mi SW 9.2 mph - N/A   Mostly Cloudy
6:50 AM 51 °F - 42 °F 64% 29.51 in 16 mi WSW 12.7 mph - -   Partly Cloudy
6:50 AM 50.0 °F - 42.8 °F 76% 29.50 in 6.2 mi WSW 12.7 mph - N/A   Scattered Clouds
7:50 AM 50.0 °F - 41.0 °F 71% 29.53 in 6.2 mi WSW 10.4 mph - N/A   Partly Cloudy
8:50 AM 50.0 °F - 41.0 °F 71% 29.56 in 6.2 mi WSW 12.7 mph - N/A   Partly Cloudy
9:44 AM 53.6 °F - 44.6 °F 72% 29.53 in 6.2 mi WSW 9.2 mph - N/A   Partly Cloudy
9:50 AM 53 °F - 43 °F 61% 29.59 in 12 mi WSW 10.4 mph - -   Scattered Clouds
10:50 AM 53.6 °F - 42.8 °F 67% 29.62 in 6.2 mi West 18.4 mph - N/A   Partly Cloudy
11:50 AM 55.4 °F - 41.0 °F 58% 29.62 in 6.2 mi West 15.0 mph 26.5 mph N/A   Partly Cloudy
12:50 PM 57 °F - 44 °F 52% 29.65 in 12 mi West 15.0 mph - -   Scattered Clouds
12:50 PM 57.2 °F - 44.6 °F 63% 29.62 in 6.2 mi West 15.0 mph - N/A   Partly Cloudy
1:50 PM 59.0 °F - 41.0 °F 51% 29.62 in 6.2 mi WSW 16.1 mph - N/A   Partly Cloudy
2:50 PM 57.2 °F - 42.8 °F 59% 29.62 in 6.2 mi West 12.7 mph - N/A   Partly Cloudy
3:50 PM 58 °F - 44 °F 50% 29.63 in 12 mi WSW 8.1 mph - -   Scattered Clouds
3:50 PM 59.0 °F - 44.6 °F 59% 29.62 in 6.2 mi WSW 8.1 mph - N/A   Partly Cloudy
4:50 PM 57.2 °F - 44.6 °F 63% 29.59 in 6.2 mi SSW 10.4 mph - N/A   Partly Cloudy
5:50 PM 53.6 °F - 46.4 °F 77% 29.62 in 6.2 mi SSW 10.4 mph - N/A   Partly Cloudy
6:50 PM 51 °F - 45 °F 72% 29.63 in 16 mi South 8.1 mph - -   Scattered Clouds
6:50 PM 51.8 °F - 44.6 °F 76% 29.62 in 6.2 mi South 8.1 mph - N/A   Scattered Clouds
7:50 PM 48.2 °F - 44.6 °F 87% 29.62 in 6.2 mi ESE 5.8 mph - N/A   Partly Cloudy
8:50 PM 46.4 °F 42.9 °F 44.6 °F 93% 29.59 in 6.2 mi SE 6.9 mph - N/A   Partly Cloudy
9:50 PM 49 °F - 44 °F 77% 29.58 in 19 mi East 8.1 mph - -   Scattered Clouds
9:50 PM 50.0 °F - 44.6 °F 82% 29.56 in 6.2 mi East 8.1 mph - N/A   Scattered Clouds
10:50 PM 50.0 °F - 44.6 °F 82% 29.53 in 6.2 mi ESE 11.5 mph - N/A   Scattered Clouds
11:50 PM 51.8 °F - 48.2 °F 88% 29.47 in 6.2 mi ESE 11.5 mph - N/A   Mostly Cloudy